TIANMU-1 21

Last updated on Thu Nov 21 2024 00:02:20 GMT+0000 (Coordinated Universal Time)

1 58662U 23208C 24325.56776810 .00014173 00000+0 63264-3 0 9997 2 58662 97.4173 75.1560 0008791 183.8798 176.2371 15.21446155 49928
UTC large
Height (km)
Speed (km/s)
/
Latitude / Longitude
Inclination (degrees)
Orbital Period (minutes)
Azimuth
Elevation
Range (km)
Doppler Factor

Next 0 passes for location: London (51.5072 / 0.1276)

Sorry there are no passes over London.